#timestamp,LO_Frequency,Hit 
1503752415.0,286046990.8,N
1503752415.9,286046990.8,N
1503752435.7,286046993.0,N
1503752455.6,286046990.5,N
1503752475.4,286046990.4,P
1503752495.3,286047002.7,P
1503752515.1,286047001.8,N
1503752516.0,286047001.8,N
1503752535.8,286047000.5,N
1503752555.6,286046999.3,N
1503752575.5,286046997.3,N
1503752595.3,286046996.1,N
1503752615.1,286046993.8,N
1503752635.9,286046991.8,N
1503752655.7,286046990.7,N
1503752675.5,286046988.5,N
1503752695.4,286046987.2,N
1503752715.2,286046985.7,N
1503752735.3,286046988.3,N
1503752755.1,286046988.4,N
1503752756.0,286046988.4,N
1503752775.8,286046989.3,N
1503752795.6,286046986.9,N
1503752815.5,286046988.2,N
1503752835.3,286046989.8,N
1503752855.1,286046991.5,N
1503752875.9,286046988.2,N
1503752895.7,286046985.6,N
1503752915.5,286046985.5,N
1503752935.4,286046986.6,N
1503752955.2,286046982.2,P
1503752975.0,286046989.5,N
1503752975.9,286046989.5,N
1503752995.8,286046987.6,P
1503753015.6,286047003.6,P
1503753035.5,286047005.7,N
1503753055.3,286047005.8,N
1503753075.1,286047006.5,N
1503753095.8,286047007.5,N
1503753115.7,286047008.1,N
1503753135.5,286047008.4,N
1503753155.3,286047004.5,N
1503753175.2,286047005.3,N
1503753195.9,286047005.2,N
1503753215.7,286047007.7,N
1503753235.6,286047009.2,N
1503753255.4,286047001.7,N
1503753275.2,286047003.7,N
1503753295.1,286047005.5,N
1503753296.0,286047005.5,N
1503753315.8,286047007.6,N
1503753335.6,286047008.5,N
1503753355.5,286047009.6,N
1503753375.3,286047013.0,N
1503753395.1,286047016.9,N
1503753415.8,286047017.5,N
1503753435.7,286047023.5,P
1503753455.5,286047017.9,N
1503753475.4,286047018.5,N
1503753495.2,286047020.3,P
1503753515.0,286047002.8,N
1503753515.9,286047002.8,N
1503753535.8,286047001.9,N
1503753555.6,286046999.9,N
1503753575.4,286046997.5,N
1503753595.3,286046992.0,N
1503753615.1,286046990.7,N
1503753616.0,286046990.7,N
1503753635.8,286046987.0,N
1503753655.6,286046989.0,N
1503753675.5,286046993.1,N
1503753695.3,286046991.0,N
1503753715.1,286046990.3,N
1503753735.9,286046990.8,N
1503753755.7,286046992.4,N
1503753775.5,286046992.2,N
1503753795.4,286046993.4,N
1503753815.2,286046991.9,N
1503753835.0,286046992.6,N
1503753835.9,286046992.6,N
1503753855.8,286046987.0,N
1503753875.6,286046987.4,N
1503753895.4,286046989.4,N
1503753915.3,286046987.1,N
1503753935.1,286046983.8,N
1503753936.0,286046983.8,N
1503753955.8,286046984.8,N
1503753975.7,286046983.1,N
1503753995.5,286046984.4,N
1503754015.3,286046983.3,N
1503754035.1,286046986.3,N
1503754055.9,286046989.9,N
1503754075.7,286046990.2,N
1503754095.5,286046990.3,N
1503754115.4,286046992.8,N
1503754135.2,286046992.5,N
1503754155.0,286046990.5,N
1503754155.9,286046990.5,N
1503754175.8,286046990.8,N
1503754195.6,286046991.1,N
1503754215.4,286046990.6,N
1503754235.3,286046993.8,N
1503754255.1,286046993.8,N
1503754256.0,286046993.8,N
1503754275.8,286046991.9,N
1503754295.7,286046991.6,N
1503754315.5,286046991.5,N
1503754335.3,286046991.1,N
1503754355.2,286046987.4,P
1503754375.9,286046996.7,P
1503754395.7,286047001.1,N
1503754415.6,286046999.7,N
1503754435.4,286046998.3,N
1503754455.2,286046996.5,N
1503754475.1,286046996.9,N
1503754476.0,286046996.9,N
1503754495.8,286046995.6,N
1503754515.6,286046994.3,N
1503754535.5,286046990.4,N
1503754555.3,286046990.2,N
1503754575.1,286046994.2,N
1503754595.9,286046994.7,N
1503754615.7,286046992.6,N
1503754635.5,286046988.9,N
1503754655.3,286046989.4,N
1503754675.2,286046989.7,N
1503754695.0,286046989.5,N
1503754695.9,286046989.5,N
1503754715.7,286046989.9,N
1503754735.6,286046987.0,P
1503754755.4,286046993.6,N
1503754775.2,286046998.0,N
1503754795.1,286046993.3,N
1503754796.0,286046993.3,N
1503754815.8,286046996.3,N
1503754835.6,286046994.2,N
1503754855.5,286046992.7,N
1503754875.3,286046991.9,N
1503754895.1,286046990.6,P
1503754915.9,286046998.6,N
1503754935.7,286046998.7,N
1503754955.5,286046997.6,N
1503754975.4,286046995.3,N
1503754995.2,286046997.2,N
1503755015.0,286046997.8,N
1503755015.9,286046997.8,N
1503755035.8,286046997.8,N
1503755055.6,286046999.2,N
1503755075.4,286047002.0,N
1503755095.3,286047003.2,N
1503755115.1,286047005.6,N
1503755116.0,286047005.6,N
1503755135.8,286047006.8,N
1503755155.7,286047006.4,N
1503755175.5,286047007.3,N
1503755195.3,286047008.1,N
1503755215.2,286047007.8,N
1503755235.9,286047008.6,N
1503755255.7,286047007.4,N
1503755275.5,286047005.0,N
1503755295.4,286047005.3,N
1503755315.2,286047000.4,N
1503755335.0,286047000.1,N
1503755335.9,286047000.1,N
1503755355.8,286047000.6,N
1503755375.6,286046999.5,N
1503755395.4,286047000.5,N
1503755415.3,286046998.4,N
1503755435.1,286046995.8,N
1503755436.0,286046995.8,N
1503755455.8,286046994.0,N
1503755475.7,286046993.4,N
1503755495.5,286046999.4,N
1503755515.3,286047000.7,N
1503755535.2,286046996.7,N
1503755555.9,286046995.5,N
1503755575.7,286046993.6,N
1503755595.6,286046995.9,N
1503755615.4,286046994.9,N
1503755635.2,286046996.8,N
1503755655.0,286046998.2,N
1503755655.9,286046998.2,N
1503755675.8,286046999.9,N
1503755695.6,286047001.4,N
1503755715.4,286047001.6,N
1503755735.3,286047002.0,N
1503755755.1,286047002.2,N
1503755775.8,286046998.4,N
1503755795.7,286046999.7,N
1503755815.5,286047001.4,N
1503755835.3,286047003.3,N
1503755855.2,286047005.5,N
1503755875.9,286047001.9,N
1503755895.7,286047003.8,N
1503755915.6,286047001.8,N
1503755935.4,286047002.6,N
1503755955.2,286047004.1,N
1503755975.0,286047004.9,N
1503755976.0,286047004.9,N
1503755995.8,286047006.1,N
